Time,TemperatureF,DewpointF,PressureIn,WindDirection,WindDirectionDegrees,WindSpeedMPH,WindSpeedGustMPH,Humidity,HourlyPrecipIn,Conditions,Clouds,dailyrainin,SoftwareType,DateUTC
2013-04-04 00:00:00,65.8,28.0,29.81,South,186,1.0,6.0,24,0.00,CLR,,0.00,WeatherDisplay:10.37,2013-04-04 07:00:00,
2013-04-04 00:05:00,66.0,28.1,29.81,South,187,1.0,4.0,24,0.00,CLR,,0.00,WeatherDisplay:10.37,2013-04-04 07:05:00,
2013-04-04 00:10:00,66.3,28.4,29.81,South,187,1.0,9.0,24,0.00,CLR,,0.00,WeatherDisplay:10.37,2013-04-04 07:10:00,
2013-04-04 00:20:00,66.1,27.2,29.81,South,186,1.0,4.0,23,0.00,CLR,,0.00,WeatherDisplay:10.37,2013-04-04 07:20:00,
2013-04-04 00:25:00,65.5,27.7,29.80,South,186,1.0,6.0,24,0.00,CLR,,0.00,WeatherDisplay:10.37,2013-04-04 07:25:00,
2013-04-04 00:30:00,66.1,28.2,29.80,South,189,2.0,9.0,24,0.00,CLR,,0.00,WeatherDisplay:10.37,2013-04-04 07:30:00,
2013-04-04 00:40:00,66.9,27.9,29.80,South,183,2.0,9.0,23,0.00,CLR,,0.00,WeatherDisplay:10.37,2013-04-04 07:40:00,
2013-04-04 00:45:00,67.1,28.0,29.80,South,176,1.0,12.0,23,0.00,CLR,,0.00,WeatherDisplay:10.37,2013-04-04 07:45:00,
2013-04-04 00:50:00,67.8,27.6,29.80,South,177,3.0,12.0,22,0.00,CLR,,0.00,WeatherDisplay:10.37,2013-04-04 07:50:00,
2013-04-04 00:55:00,68.4,28.1,29.80,SSW,194,6.0,12.0,22,0.00,CLR,,0.00,WeatherDisplay:10.37,2013-04-04 07:55:00,
2013-04-04 01:05:00,67.7,27.5,29.80,SSW,195,2.0,7.0,22,0.00,CLR,,0.00,WeatherDisplay:10.37,2013-04-04 08:05:00,
2013-04-04 01:10:00,67.4,28.3,29.80,South,178,1.0,7.0,23,0.00,CLR,,0.00,WeatherDisplay:10.37,2013-04-04 08:10:00,
2013-04-04 01:15:00,67.1,28.0,29.80,South,182,1.0,5.0,23,0.00,CLR,,0.00,WeatherDisplay:10.37,2013-04-04 08:15:00,
2013-04-04 01:25:00,65.9,28.1,29.80,South,182,1.0,4.0,24,0.00,CLR,,0.00,WeatherDisplay:10.37,2013-04-04 08:25:00,
2013-04-04 01:30:00,64.8,28.2,29.80,SE,136,3.0,5.0,25,0.00,CLR,,0.00,WeatherDisplay:10.37,2013-04-04 08:30:00,
2013-04-04 01:35:00,64.2,28.6,29.81,ESE,119,2.0,5.0,26,0.00,CLR,,0.00,WeatherDisplay:10.37,2013-04-04 08:35:00,
2013-04-04 01:40:00,63.9,29.2,29.80,ESE,119,1.0,4.0,27,0.00,CLR,,0.00,WeatherDisplay:10.37,2013-04-04 08:40:00,
2013-04-04 01:50:00,64.0,29.3,29.80,ESE,120,1.0,4.0,27,0.00,CLR,,0.00,WeatherDisplay:10.37,2013-04-04 08:50:00,
2013-04-04 01:55:00,64.2,29.5,29.80,SE,137,1.0,6.0,27,0.00,CLR,,0.00,WeatherDisplay:10.37,2013-04-04 08:55:00,
2013-04-04 02:05:00,67.1,30.1,29.79,SSW,203,9.0,14.0,25,0.00,CLR,,0.00,WeatherDisplay:10.37,2013-04-04 09:05:00,
2013-04-04 02:10:00,66.6,29.6,29.79,SSW,205,7.0,12.0,25,0.00,CLR,,0.00,WeatherDisplay:10.37,2013-04-04 09:10:00,
2013-04-04 02:15:00,66.3,30.4,29.80,SSW,206,5.0,12.0,26,0.00,CLR,,0.00,WeatherDisplay:10.37,2013-04-04 09:15:00,
2013-04-04 02:20:00,66.1,30.2,29.80,SSW,206,7.0,10.0,26,0.00,CLR,,0.00,WeatherDisplay:10.37,2013-04-04 09:20:00,
2013-04-04 02:30:00,66.4,30.4,29.79,SSW,203,6.0,10.0,26,0.00,CLR,,0.00,WeatherDisplay:10.37,2013-04-04 09:30:00,
2013-04-04 02:40:00,67.0,30.0,29.79,SSW,207,9.0,13.0,25,0.00,CLR,,0.00,WeatherDisplay:10.37,2013-04-04 09:40:00,
2013-04-04 02:50:00,67.2,30.2,29.79,SSW,206,5.0,9.0,25,0.00,CLR,,0.00,WeatherDisplay:10.37,2013-04-04 09:50:00,
2013-04-04 03:00:00,66.4,31.4,29.78,SSW,204,1.0,7.0,27,0.00,CLR,,0.00,WeatherDisplay:10.37,2013-04-04 10:00:00,
2013-04-04 03:10:00,65.6,30.7,29.78,SSW,204,2.0,4.0,27,0.00,CLR,,0.00,WeatherDisplay:10.37,2013-04-04 10:10:00,
2013-04-04 03:20:00,63.9,30.1,29.78,SSW,201,2.0,5.0,28,0.00,CLR,,0.00,WeatherDisplay:10.37,2013-04-04 10:20:00,
2013-04-04 03:25:00,63.4,29.7,29.78,SSW,198,0.0,4.0,28,0.00,CLR,,0.00,WeatherDisplay:10.37,2013-04-04 10:25:00,
2013-04-04 03:30:00,63.1,29.4,29.78,SSW,198,1.0,4.0,28,0.00,CLR,,0.00,WeatherDisplay:10.37,2013-04-04 10:30:00,
2013-04-04 03:40:00,63.5,29.8,29.78,SSW,202,7.0,12.0,28,0.00,CLR,,0.00,WeatherDisplay:10.37,2013-04-04 10:40:00,
2013-04-04 03:50:00,65.5,30.6,29.78,SSW,209,8.0,13.0,27,0.00,CLR,,0.00,WeatherDisplay:10.37,2013-04-04 10:50:00,
2013-04-04 03:55:00,66.0,31.0,29.78,SSW,213,9.0,13.0,27,0.00,CLR,,0.00,WeatherDisplay:10.37,2013-04-04 10:55:00,
2013-04-04 04:00:00,66.0,31.0,29.78,SSW,212,6.0,10.0,27,0.00,CLR,,0.00,WeatherDisplay:10.37,2013-04-04 11:00:00,
2013-04-04 04:10:00,65.5,31.5,29.77,SSW,199,1.0,8.0,28,0.00,CLR,,0.00,WeatherDisplay:10.37,2013-04-04 11:10:00,
2013-04-04 04:15:00,65.1,31.1,29.77,SSW,198,1.0,7.0,28,0.00,CLR,,0.00,WeatherDisplay:10.37,2013-04-04 11:15:00,
2013-04-04 04:20:00,64.2,30.4,29.78,SSW,198,1.0,4.0,28,0.00,CLR,,0.00,WeatherDisplay:10.37,2013-04-04 11:20:00,
2013-04-04 04:25:00,63.2,31.3,29.78,SSW,196,2.0,5.0,30,0.00,CLR,,0.00,WeatherDisplay:10.37,2013-04-04 11:25:00,
2013-04-04 04:35:00,63.5,32.3,29.78,SSE,164,3.0,13.0,31,0.00,CLR,,0.00,WeatherDisplay:10.37,2013-04-04 11:35:00,
2013-04-04 04:40:00,63.9,31.8,29.78,SSE,163,1.0,9.0,30,0.00,CLR,,0.00,WeatherDisplay:10.37,2013-04-04 11:40:00,
2013-04-04 04:50:00,63.7,32.5,29.78,South,169,3.0,7.0,31,0.00,CLR,,0.00,WeatherDisplay:10.37,2013-04-04 11:50:00,
2013-04-04 04:55:00,63.4,32.2,29.78,South,171,1.0,6.0,31,0.00,CLR,,0.00,WeatherDisplay:10.37,2013-04-04 11:55:00,
2013-04-04 05:00:00,63.1,32.7,29.78,South,173,2.0,7.0,32,0.00,CLR,,0.00,WeatherDisplay:10.37,2013-04-04 12:00:00,
2013-04-04 05:10:00,62.9,34.1,29.78,South,174,3.0,8.0,34,0.00,CLR,,0.00,WeatherDisplay:10.37,2013-04-04 12:10:00,
2013-04-04 05:20:00,62.7,33.9,29.78,South,186,3.0,12.0,34,0.00,CLR,,0.00,WeatherDisplay:10.37,2013-04-04 12:20:00,
2013-04-04 05:30:00,63.5,33.9,29.79,SSW,194,8.0,14.0,33,0.00,CLR,,0.00,WeatherDisplay:10.37,2013-04-04 12:30:00,
2013-04-04 05:40:00,64.0,33.5,29.78,SSW,202,7.0,12.0,32,0.00,CLR,,0.00,WeatherDisplay:10.37,2013-04-04 12:40:00,
2013-04-04 05:45:00,63.9,34.2,29.78,SSW,207,8.0,13.0,33,0.00,CLR,,0.00,WeatherDisplay:10.37,2013-04-04 12:45:00,
2013-04-04 05:50:00,63.7,34.0,29.78,SSW,207,9.0,13.0,33,0.00,CLR,,0.00,WeatherDisplay:10.37,2013-04-04 12:50:00,
2013-04-04 05:55:00,63.5,33.9,29.78,SSW,206,9.0,16.0,33,0.00,CLR,,0.00,WeatherDisplay:10.37,2013-04-04 12:55:00,
2013-04-04 06:00:00,63.9,33.4,29.78,SSW,200,8.0,14.0,32,0.00,CLR,,0.00,WeatherDisplay:10.37,2013-04-04 13:00:00,
2013-04-04 06:05:00,64.4,32.3,29.78,SSW,197,7.0,14.0,30,0.00,CLR,,0.00,WeatherDisplay:10.37,2013-04-04 13:05:00,
2013-04-04 06:10:00,64.8,32.6,29.77,SSW,196,8.0,16.0,30,0.00,CLR,,0.00,WeatherDisplay:10.37,2013-04-04 13:10:00,
2013-04-04 06:15:00,65.2,32.1,29.77,SSW,198,8.0,14.0,29,0.00,CLR,,0.00,WeatherDisplay:10.37,2013-04-04 13:15:00,
2013-04-04 06:20:00,65.0,31.9,29.77,SSW,205,9.0,12.0,29,0.00,CLR,,0.00,WeatherDisplay:10.37,2013-04-04 13:20:00,
2013-04-04 06:25:00,64.8,32.6,29.79,SSW,204,8.0,13.0,30,0.00,CLR,,0.00,WeatherDisplay:10.37,2013-04-04 13:25:00,
2013-04-04 06:30:00,64.3,33.0,29.79,SSW,207,7.0,12.0,31,0.00,CLR,,0.00,WeatherDisplay:10.37,2013-04-04 13:30:00,
2013-04-04 06:40:00,64.0,32.7,29.79,SW,216,9.0,14.0,31,0.00,CLR,,0.00,WeatherDisplay:10.37,2013-04-04 13:40:00,
2013-04-04 06:50:00,63.7,33.3,29.79,SW,219,8.0,12.0,32,0.00,CLR,,0.00,WeatherDisplay:10.37,2013-04-04 13:50:00,
2013-04-04 06:55:00,63.6,33.1,29.79,SSW,208,5.0,12.0,32,0.00,CLR,,0.00,WeatherDisplay:10.37,2013-04-04 13:55:00,
2013-04-04 07:00:00,63.1,33.5,29.80,SSW,207,5.0,7.0,33,0.00,CLR,,0.00,WeatherDisplay:10.37,2013-04-04 14:00:00,
2013-04-04 07:05:00,62.6,33.1,29.80,SSW,208,1.0,6.0,33,0.00,CLR,,0.00,WeatherDisplay:10.37,2013-04-04 14:05:00,
2013-04-04 07:15:00,63.1,31.9,29.81,SSW,208,1.0,2.0,31,0.00,CLR,,0.00,WeatherDisplay:10.37,2013-04-04 14:15:00,
2013-04-04 07:20:00,62.9,29.3,29.81,SSW,208,0.0,4.0,28,0.00,CLR,,0.00,WeatherDisplay:10.37,2013-04-04 14:20:00,
2013-04-04 07:30:00,64.0,29.3,29.83,SW,232,7.0,12.0,27,0.00,CLR,,0.00,WeatherDisplay:10.37,2013-04-04 14:30:00,
2013-04-04 07:40:00,63.5,29.8,29.83,West,260,7.0,11.0,28,0.00,CLR,,0.00,WeatherDisplay:10.37,2013-04-04 14:40:00,
2013-04-04 07:50:00,65.2,32.1,29.83,WSW,257,6.0,12.0,29,0.00,CLR,,0.00,WeatherDisplay:10.37,2013-04-04 14:50:00,
2013-04-04 07:55:00,65.6,32.5,29.83,WSW,251,6.0,9.0,29,0.00,CLR,,0.00,WeatherDisplay:10.37,2013-04-04 14:55:00,
2013-04-04 08:00:00,66.1,32.9,29.83,WSW,238,9.0,14.0,29,0.00,CLR,,0.00,WeatherDisplay:10.37,2013-04-04 15:00:00,
2013-04-04 08:05:00,66.1,32.9,29.83,SW,223,9.0,15.0,29,0.00,CLR,,0.00,WeatherDisplay:10.37,2013-04-04 15:05:00,
2013-04-04 08:15:00,66.9,33.6,29.83,SSW,211,16.0,22.0,29,0.00,CLR,,0.00,WeatherDisplay:10.37,2013-04-04 15:15:00,
2013-04-04 08:20:00,66.8,33.5,29.83,SSW,207,16.0,23.0,29,0.00,CLR,,0.00,WeatherDisplay:10.37,2013-04-04 15:20:00,
2013-04-04 08:30:00,66.9,33.6,29.84,SSW,211,13.0,20.0,29,0.00,CLR,,0.00,WeatherDisplay:10.37,2013-04-04 15:30:00,
2013-04-04 08:40:00,68.2,33.8,29.84,SSW,206,12.0,21.0,28,0.00,CLR,,0.00,WeatherDisplay:10.37,2013-04-04 15:40:00,
2013-04-04 08:45:00,68.8,33.4,29.83,SSW,209,9.0,17.0,27,0.00,CLR,,0.00,WeatherDisplay:10.37,2013-04-04 15:45:00,
2013-04-04 08:55:00,69.4,33.0,29.82,SSW,196,8.0,15.0,26,0.00,CLR,,0.00,WeatherDisplay:10.37,2013-04-04 15:55:00,
2013-04-04 09:00:00,69.9,32.5,29.82,SSW,194,7.0,14.0,25,0.00,CLR,,0.00,WeatherDisplay:10.37,2013-04-04 16:00:00,
2013-04-04 09:10:00,70.4,31.9,29.82,SSW,198,10.0,17.0,24,0.00,CLR,,0.00,WeatherDisplay:10.37,2013-04-04 16:10:00,
2013-04-04 09:15:00,70.5,33.0,29.82,SSW,197,10.0,15.0,25,0.00,CLR,,0.00,WeatherDisplay:10.37,2013-04-04 16:15:00,
2013-04-04 09:20:00,70.9,32.3,29.82,SSW,194,10.0,16.0,24,0.00,CLR,,0.00,WeatherDisplay:10.37,2013-04-04 16:20:00,
2013-04-04 09:30:00,70.9,33.3,29.82,South,190,9.0,17.0,25,0.00,CLR,,0.00,WeatherDisplay:10.37,2013-04-04 16:30:00,
2013-04-04 09:40:00,71.3,32.6,29.82,SSW,194,7.0,15.0,24,0.00,CLR,,0.00,WeatherDisplay:10.37,2013-04-04 16:40:00,
2013-04-04 09:45:00,71.6,32.9,29.82,SSW,193,10.0,15.0,24,0.00,CLR,,0.00,WeatherDisplay:10.37,2013-04-04 16:45:00,
2013-04-04 09:50:00,71.6,32.9,29.82,SSW,206,8.0,18.0,24,0.00,CLR,,0.00,WeatherDisplay:10.37,2013-04-04 16:50:00,
2013-04-04 09:55:00,71.6,33.9,29.82,SSW,198,7.0,16.0,25,0.00,CLR,,0.00,WeatherDisplay:10.37,2013-04-04 16:55:00,
2013-04-04 10:05:00,71.9,33.1,29.82,SSW,197,5.0,16.0,24,0.00,CLR,,0.00,WeatherDisplay:10.37,2013-04-04 17:05:00,
2013-04-04 10:10:00,72.6,33.8,29.81,SSW,194,6.0,12.0,24,0.00,CLR,,0.00,WeatherDisplay:10.37,2013-04-04 17:10:00,
2013-04-04 10:15:00,73.1,34.1,29.81,SSW,193,7.0,15.0,24,0.00,CLR,,0.00,WeatherDisplay:10.37,2013-04-04 17:15:00,
2013-04-04 10:25:00,73.9,32.6,29.82,SSW,193,9.0,15.0,22,0.00,CLR,,0.00,WeatherDisplay:10.37,2013-04-04 17:25:00,
2013-04-04 10:30:00,74.7,33.3,29.81,SSW,211,14.0,20.0,22,0.00,CLR,,0.00,WeatherDisplay:10.37,2013-04-04 17:30:00,
2013-04-04 10:40:00,74.9,33.5,29.81,SW,225,9.0,18.0,22,0.00,CLR,,0.00,WeatherDisplay:10.37,2013-04-04 17:40:00,
2013-04-04 10:50:00,75.1,34.8,29.81,SSW,196,5.0,15.0,23,0.00,CLR,,0.00,WeatherDisplay:10.37,2013-04-04 17:50:00,
2013-04-04 10:55:00,75.6,32.9,29.81,SSW,208,13.0,18.0,21,0.00,CLR,,0.00,WeatherDisplay:10.37,2013-04-04 17:55:00,
2013-04-04 11:05:00,76.1,32.1,29.81,SW,225,12.0,17.0,20,0.00,CLR,,0.00,WeatherDisplay:10.37,2013-04-04 18:05:00,
2013-04-04 11:10:00,76.0,32.0,29.81,WSW,244,7.0,15.0,20,0.00,CLR,,0.00,WeatherDisplay:10.37,2013-04-04 18:10:00,
2013-04-04 11:20:00,76.1,33.3,29.81,WSW,254,14.0,18.0,21,0.00,CLR,,0.00,WeatherDisplay:10.37,2013-04-04 18:20:00,
2013-04-04 11:25:00,76.1,33.3,29.81,SW,232,10.0,15.0,21,0.00,CLR,,0.00,WeatherDisplay:10.37,2013-04-04 18:25:00,
2013-04-04 11:30:00,76.3,33.5,29.80,SW,227,10.0,17.0,21,0.00,CLR,,0.00,WeatherDisplay:10.37,2013-04-04 18:30:00,
2013-04-04 11:40:00,76.3,34.6,29.80,SW,236,8.0,20.0,22,0.00,CLR,,0.00,WeatherDisplay:10.37,2013-04-04 18:40:00,
2013-04-04 11:50:00,76.5,34.8,29.81,SW,226,6.0,21.0,22,0.00,CLR,,0.00,WeatherDisplay:10.37,2013-04-04 18:50:00,
2013-04-04 11:55:00,76.6,36.0,29.80,SW,226,17.0,22.0,23,0.00,CLR,,0.00,WeatherDisplay:10.37,2013-04-04 18:55:00,
2013-04-04 12:00:00,76.2,33.4,29.80,SW,220,10.0,24.0,21,0.00,CLR,,0.00,WeatherDisplay:10.37,2013-04-04 19:00:00,
2013-04-04 12:05:00,77.1,34.2,29.80,SSW,204,8.0,20.0,21,0.00,CLR,,0.00,WeatherDisplay:10.37,2013-04-04 19:05:00,
2013-04-04 12:10:00,76.5,34.8,29.80,SSW,212,12.0,17.0,22,0.00,CLR,,0.00,WeatherDisplay:10.37,2013-04-04 19:10:00,
2013-04-04 12:15:00,76.1,34.5,29.80,SW,231,8.0,18.0,22,0.00,CLR,,0.00,WeatherDisplay:10.37,2013-04-04 19:15:00,
2013-04-04 12:20:00,77.2,34.2,29.79,SW,236,16.0,21.0,21,0.00,CLR,,0.00,WeatherDisplay:10.37,2013-04-04 19:20:00,
2013-04-04 12:25:00,77.0,34.1,29.79,WSW,237,15.0,18.0,21,0.00,CLR,,0.00,WeatherDisplay:10.37,2013-04-04 19:25:00,
2013-04-04 12:30:00,77.2,34.2,29.79,SW,229,13.0,21.0,21,0.00,CLR,,0.00,WeatherDisplay:10.37,2013-04-04 19:30:00,
2013-04-04 12:35:00,76.9,32.7,29.79,SW,236,15.0,22.0,20,0.00,CLR,,0.00,WeatherDisplay:10.37,2013-04-04 19:35:00,
2013-04-04 12:40:00,75.8,33.1,29.79,WSW,240,8.0,22.0,21,0.00,CLR,,0.00,WeatherDisplay:10.37,2013-04-04 19:40:00,
2013-04-04 12:50:00,76.3,32.2,29.79,SW,216,14.0,24.0,20,0.00,CLR,,0.00,WeatherDisplay:10.37,2013-04-04 19:50:00,
2013-04-04 12:55:00,76.6,31.2,29.79,SW,219,15.0,22.0,19,0.00,CLR,,0.00,WeatherDisplay:10.37,2013-04-04 19:55:00,
2013-04-04 13:00:00,76.8,31.4,29.79,SW,215,14.0,22.0,19,0.00,CLR,,0.00,WeatherDisplay:10.37,2013-04-04 20:00:00,
2013-04-04 13:10:00,77.6,30.7,29.78,SW,226,17.0,25.0,18,0.00,CLR,,0.00,WeatherDisplay:10.37,2013-04-04 20:10:00,
2013-04-04 13:15:00,76.8,30.1,29.79,SW,230,17.0,26.0,18,0.00,CLR,,0.00,WeatherDisplay:10.37,2013-04-04 20:15:00,
2013-04-04 13:20:00,76.7,30.0,29.78,SW,230,21.0,26.0,18,0.00,CLR,,0.00,WeatherDisplay:10.37,2013-04-04 20:20:00,
2013-04-04 13:25:00,77.2,30.4,29.78,SW,230,17.0,28.0,18,0.00,CLR,,0.00,WeatherDisplay:10.37,2013-04-04 20:25:00,
2013-04-04 13:30:00,76.8,32.7,29.77,SW,233,22.0,29.0,20,0.00,CLR,,0.00,WeatherDisplay:10.37,2013-04-04 20:30:00,
2013-04-04 13:40:00,77.5,34.4,29.77,SW,232,16.0,23.0,21,0.00,CLR,,0.00,WeatherDisplay:10.37,2013-04-04 20:40:00,
2013-04-04 13:45:00,76.8,35.0,29.77,SSW,210,20.0,26.0,22,0.00,CLR,,0.00,WeatherDisplay:10.37,2013-04-04 20:45:00,
2013-04-04 13:50:00,76.8,35.1,29.77,SW,228,17.0,26.0,22,0.00,CLR,,0.00,WeatherDisplay:10.37,2013-04-04 20:50:00,
2013-04-04 14:00:00,77.9,36.0,29.76,SW,221,17.0,24.0,22,0.00,CLR,,0.00,WeatherDisplay:10.37,2013-04-04 21:00:00,
2013-04-04 14:05:00,77.5,36.8,29.75,SSW,213,20.0,27.0,23,0.00,CLR,,0.00,WeatherDisplay:10.37,2013-04-04 21:05:00,
2013-04-04 14:15:00,77.4,35.6,29.75,WSW,242,15.0,22.0,22,0.00,CLR,,0.00,WeatherDisplay:10.37,2013-04-04 21:15:00,
2013-04-04 14:20:00,77.7,35.8,29.75,WSW,249,16.0,25.0,22,0.00,CLR,,0.00,WeatherDisplay:10.37,2013-04-04 21:20:00,
2013-04-04 14:30:00,78.6,36.6,29.76,SW,230,16.0,27.0,22,0.00,CLR,,0.00,WeatherDisplay:10.37,2013-04-04 21:30:00,
2013-04-04 14:40:00,77.1,36.5,29.76,WSW,245,18.0,26.0,23,0.00,CLR,,0.00,WeatherDisplay:10.37,2013-04-04 21:40:00,
2013-04-04 14:45:00,77.3,36.6,29.75,WSW,241,20.0,24.0,23,0.00,CLR,,0.00,WeatherDisplay:10.37,2013-04-04 21:45:00,
2013-04-04 14:50:00,77.6,36.8,29.75,WSW,240,16.0,26.0,23,0.00,CLR,,0.00,WeatherDisplay:10.37,2013-04-04 21:50:00,
2013-04-04 15:00:00,76.6,38.1,29.75,WSW,239,16.0,23.0,25,0.00,CLR,,0.00,WeatherDisplay:10.37,2013-04-04 22:00:00,
2013-04-04 15:05:00,77.4,38.8,29.75,SW,234,16.0,21.0,25,0.00,CLR,,0.00,WeatherDisplay:10.37,2013-04-04 22:05:00,
2013-04-04 15:20:00,76.6,38.1,29.75,SW,236,16.0,22.0,25,0.00,CLR,,0.00,WeatherDisplay:10.37,2013-04-04 22:20:00,
2013-04-04 15:30:00,76.6,39.1,29.75,SW,235,16.0,21.0,26,0.00,CLR,,0.00,WeatherDisplay:10.37,2013-04-04 22:30:00,
2013-04-04 15:40:00,76.6,39.1,29.74,WSW,249,17.0,22.0,26,0.00,CLR,,0.00,WeatherDisplay:10.37,2013-04-04 22:40:00,
2013-04-04 15:50:00,76.7,38.2,29.75,WSW,247,18.0,24.0,25,0.00,CLR,,0.00,WeatherDisplay:10.37,2013-04-04 22:50:00,
2013-04-04 15:55:00,76.8,38.3,29.74,WSW,244,18.0,26.0,25,0.00,CLR,,0.00,WeatherDisplay:10.37,2013-04-04 22:55:00,
2013-04-04 16:00:00,77.1,37.5,29.75,SW,231,20.0,25.0,24,0.00,CLR,,0.00,WeatherDisplay:10.37,2013-04-04 23:00:00,
2013-04-04 16:05:00,76.7,37.2,29.74,SW,230,17.0,25.0,24,0.00,CLR,,0.00,WeatherDisplay:10.37,2013-04-04 23:05:00,
2013-04-04 16:10:00,76.7,37.2,29.74,WSW,238,15.0,23.0,24,0.00,CLR,,0.00,WeatherDisplay:10.37,2013-04-04 23:10:00,
2013-04-04 16:20:00,76.4,37.0,29.75,WSW,254,14.0,23.0,24,0.00,CLR,,0.00,WeatherDisplay:10.37,2013-04-04 23:20:00,
2013-04-04 16:25:00,76.2,36.7,29.75,WSW,246,16.0,22.0,24,0.00,CLR,,0.00,WeatherDisplay:10.37,2013-04-04 23:25:00,
2013-04-04 16:35:00,75.9,35.5,29.75,WSW,242,16.0,21.0,23,0.00,CLR,,0.00,WeatherDisplay:10.37,2013-04-04 23:35:00,
2013-04-04 16:40:00,75.4,35.0,29.75,West,260,16.0,23.0,23,0.00,CLR,,0.00,WeatherDisplay:10.37,2013-04-04 23:40:00,
2013-04-04 16:45:00,75.3,34.9,29.75,West,261,17.0,22.0,23,0.00,CLR,,0.00,WeatherDisplay:10.37,2013-04-04 23:45:00,
2013-04-04 16:55:00,74.9,34.6,29.75,West,271,14.0,26.0,23,0.00,CLR,,0.00,WeatherDisplay:10.37,2013-04-04 23:55:00,
2013-04-04 17:05:00,74.6,35.4,29.75,WSW,257,15.0,20.0,24,0.00,CLR,,0.00,WeatherDisplay:10.37,2013-04-05 00:05:00,
2013-04-04 17:15:00,74.2,35.0,29.75,West,259,17.0,23.0,24,0.00,CLR,,0.00,WeatherDisplay:10.37,2013-04-05 00:15:00,
2013-04-04 17:25:00,73.5,35.5,29.74,West,259,20.0,24.0,25,0.00,CLR,,0.00,WeatherDisplay:10.37,2013-04-05 00:25:00,
2013-04-04 17:35:00,72.1,36.3,29.74,West,259,17.0,28.0,27,0.00,CLR,,0.00,WeatherDisplay:10.37,2013-04-05 00:35:00,
2013-04-04 17:40:00,71.8,36.9,29.74,West,260,21.0,27.0,28,0.00,CLR,,0.00,WeatherDisplay:10.37,2013-04-05 00:40:00,
2013-04-04 17:50:00,71.3,35.6,29.74,West,263,16.0,27.0,27,0.00,CLR,,0.00,WeatherDisplay:10.37,2013-04-05 00:50:00,
2013-04-04 17:55:00,70.9,36.1,29.75,WSW,256,18.0,24.0,28,0.00,CLR,,0.00,WeatherDisplay:10.37,2013-04-05 00:55:00,
2013-04-04 18:00:00,70.4,35.7,29.75,West,259,18.0,25.0,28,0.00,CLR,,0.00,WeatherDisplay:10.37,2013-04-05 01:00:00,
2013-04-04 18:05:00,70.4,35.7,29.75,WSW,255,14.0,23.0,28,0.00,CLR,,0.00,WeatherDisplay:10.37,2013-04-05 01:05:00,
2013-04-04 18:15:00,70.1,36.3,29.75,WSW,250,18.0,27.0,29,0.00,CLR,,0.00,WeatherDisplay:10.37,2013-04-05 01:15:00,
2013-04-04 18:25:00,69.8,35.2,29.76,WSW,254,21.0,26.0,28,0.00,CLR,,0.00,WeatherDisplay:10.37,2013-04-05 01:25:00,
2013-04-04 18:35:00,68.8,35.2,29.75,WSW,241,22.0,28.0,29,0.00,CLR,,0.00,WeatherDisplay:10.37,2013-04-05 01:35:00,
2013-04-04 18:45:00,68.3,33.9,29.75,WSW,243,23.0,29.0,28,0.00,CLR,,0.00,WeatherDisplay:10.37,2013-04-05 01:45:00,
2013-04-04 18:50:00,68.1,34.6,29.75,WSW,243,22.0,28.0,29,0.00,CLR,,0.00,WeatherDisplay:10.37,2013-04-05 01:50:00,
2013-04-04 19:00:00,67.4,34.9,29.75,SW,228,25.0,32.0,30,0.00,CLR,,0.00,WeatherDisplay:10.37,2013-04-05 02:00:00,
2013-04-04 19:10:00,66.9,34.4,29.75,SW,225,25.0,32.0,30,0.00,CLR,,0.00,WeatherDisplay:10.37,2013-04-05 02:10:00,
2013-04-04 19:20:00,66.6,34.2,29.75,SW,229,22.0,29.0,30,0.00,CLR,,0.00,WeatherDisplay:10.37,2013-04-05 02:20:00,
2013-04-04 19:30:00,66.4,32.3,29.75,SW,223,16.0,28.0,28,0.00,CLR,,0.00,WeatherDisplay:10.37,2013-04-05 02:30:00,
2013-04-04 19:35:00,66.1,32.0,29.75,SW,223,17.0,25.0,28,0.00,CLR,,0.00,WeatherDisplay:10.37,2013-04-05 02:35:00,
2013-04-04 19:40:00,66.0,32.0,29.75,SW,217,17.0,24.0,28,0.00,CLR,,0.00,WeatherDisplay:10.37,2013-04-05 02:40:00,
2013-04-04 19:50:00,66.0,30.1,29.75,SW,222,17.0,27.0,26,0.00,CLR,,0.00,WeatherDisplay:10.37,2013-04-05 02:50:00,
2013-04-04 20:00:00,65.8,29.9,29.75,SW,218,20.0,27.0,26,0.00,CLR,,0.00,WeatherDisplay:10.37,2013-04-05 03:00:00,
2013-04-04 20:05:00,66.0,30.1,29.74,SW,215,20.0,27.0,26,0.00,CLR,,0.00,WeatherDisplay:10.37,2013-04-05 03:05:00,
2013-04-04 20:10:00,65.8,30.8,29.74,SW,223,20.0,24.0,27,0.00,CLR,,0.00,WeatherDisplay:10.37,2013-04-05 03:10:00,
2013-04-04 20:15:00,65.6,30.7,29.75,SW,225,20.0,24.0,27,0.00,CLR,,0.00,WeatherDisplay:10.37,2013-04-05 03:15:00,
2013-04-04 20:20:00,65.6,30.7,29.75,SW,225,15.0,25.0,27,0.00,CLR,,0.00,WeatherDisplay:10.37,2013-04-05 03:20:00,
2013-04-04 20:30:00,65.5,30.6,29.74,SW,221,22.0,25.0,27,0.00,CLR,,0.00,WeatherDisplay:10.37,2013-04-05 03:30:00,
2013-04-04 20:40:00,65.2,30.4,29.74,SW,223,16.0,25.0,27,0.00,CLR,,0.00,WeatherDisplay:10.37,2013-04-05 03:40:00,
2013-04-04 20:50:00,64.7,30.9,29.74,SW,218,18.0,23.0,28,0.00,CLR,,0.00,WeatherDisplay:10.37,2013-04-05 03:50:00,
2013-04-04 20:55:00,65.2,30.3,29.74,SW,220,17.0,22.0,27,0.00,CLR,,0.00,WeatherDisplay:10.37,2013-04-05 03:55:00,
2013-04-04 21:00:00,65.2,30.3,29.74,SW,218,18.0,25.0,27,0.00,CLR,,0.00,WeatherDisplay:10.37,2013-04-05 04:00:00,
2013-04-04 21:05:00,65.0,30.2,29.73,SW,221,16.0,24.0,27,0.00,CLR,,0.00,WeatherDisplay:10.37,2013-04-05 04:05:00,
2013-04-04 21:10:00,64.7,29.9,29.73,SW,230,20.0,24.0,27,0.00,CLR,,0.00,WeatherDisplay:10.37,2013-04-05 04:10:00,
2013-04-04 21:15:00,65.0,30.2,29.73,SW,234,20.0,25.0,27,0.00,CLR,,0.00,WeatherDisplay:10.37,2013-04-05 04:15:00,
2013-04-04 21:20:00,64.7,30.0,29.73,SW,222,21.0,26.0,27,0.00,CLR,,0.00,WeatherDisplay:10.37,2013-04-05 04:20:00,
2013-04-04 21:25:00,64.8,30.9,29.72,SW,218,20.0,24.0,28,0.00,CLR,,0.00,WeatherDisplay:10.37,2013-04-05 04:25:00,
2013-04-04 21:30:00,64.8,30.9,29.71,SW,220,23.0,30.0,28,0.00,CLR,,0.00,WeatherDisplay:10.37,2013-04-05 04:30:00,
2013-04-04 21:40:00,65.1,31.2,29.72,SW,224,18.0,27.0,28,0.00,CLR,,0.00,WeatherDisplay:10.37,2013-04-05 04:40:00,
2013-04-04 21:45:00,65.2,30.3,29.73,SW,222,13.0,20.0,27,0.00,CLR,,0.00,WeatherDisplay:10.37,2013-04-05 04:45:00,
2013-04-04 21:55:00,64.8,30.9,29.72,SSW,208,12.0,17.0,28,0.00,CLR,,0.00,WeatherDisplay:10.37,2013-04-05 04:55:00,
2013-04-04 22:05:00,64.8,30.9,29.73,SSW,200,3.0,14.0,28,0.00,CLR,,0.00,WeatherDisplay:10.37,2013-04-05 05:05:00,
2013-04-04 22:10:00,64.8,30.0,29.74,SSW,202,7.0,20.0,27,0.00,CLR,,0.00,WeatherDisplay:10.37,2013-04-05 05:10:00,
2013-04-04 22:20:00,64.8,30.9,29.74,SSW,199,12.0,18.0,28,0.00,CLR,,0.00,WeatherDisplay:10.37,2013-04-05 05:20:00,
2013-04-04 22:25:00,64.7,30.8,29.73,SSW,198,12.0,16.0,28,0.00,CLR,,0.00,WeatherDisplay:10.37,2013-04-05 05:25:00,
2013-04-04 22:30:00,64.7,30.8,29.73,SW,216,12.0,22.0,28,0.00,CLR,,0.00,WeatherDisplay:10.37,2013-04-05 05:30:00,
2013-04-04 22:40:00,64.0,32.8,29.73,SSW,203,9.0,14.0,31,0.00,CLR,,0.00,WeatherDisplay:10.37,2013-04-05 05:40:00,
2013-04-04 22:45:00,63.5,32.3,29.73,SW,217,10.0,14.0,31,0.00,CLR,,0.00,WeatherDisplay:10.37,2013-04-05 05:45:00,
2013-04-04 22:50:00,63.7,33.3,29.73,SW,228,14.0,20.0,32,0.00,CLR,,0.00,WeatherDisplay:10.37,2013-04-05 05:50:00,
2013-04-04 22:55:00,63.7,32.5,29.73,SW,236,16.0,20.0,31,0.00,CLR,,0.00,WeatherDisplay:10.37,2013-04-05 05:55:00,
2013-04-04 23:00:00,63.7,34.1,29.73,SW,229,15.0,21.0,33,0.00,CLR,,0.00,WeatherDisplay:10.37,2013-04-05 06:00:00,
2013-04-04 23:05:00,63.2,35.1,29.73,SW,224,15.0,20.0,35,0.00,CLR,,0.00,WeatherDisplay:10.37,2013-04-05 06:05:00,
2013-04-04 23:10:00,63.1,35.0,29.74,SW,230,16.0,20.0,35,0.00,CLR,,0.00,WeatherDisplay:10.37,2013-04-05 06:10:00,
2013-04-04 23:15:00,63.3,35.1,29.73,WSW,237,16.0,24.0,35,0.00,CLR,,0.00,WeatherDisplay:10.37,2013-04-05 06:15:00,
2013-04-04 23:20:00,63.1,36.4,29.73,SW,231,17.0,23.0,37,0.00,CLR,,0.00,WeatherDisplay:10.37,2013-04-05 06:20:00,
2013-04-04 23:30:00,62.6,36.6,29.72,SW,235,20.0,25.0,38,0.00,CLR,,0.00,WeatherDisplay:10.37,2013-04-05 06:30:00,
2013-04-04 23:40:00,62.7,36.7,29.72,SW,231,22.0,29.0,38,0.00,CLR,,0.00,WeatherDisplay:10.37,2013-04-05 06:40:00,
2013-04-04 23:45:00,62.7,36.7,29.72,WSW,244,20.0,26.0,38,0.00,CLR,,0.00,WeatherDisplay:10.37,2013-04-05 06:45:00,
2013-04-04 23:55:00,62.4,36.5,29.72,WSW,244,15.0,24.0,38,0.00,CLR,,0.00,WeatherDisplay:10.37,2013-04-05 06:55:00,